N787PR TFFF-TJSJ

Flight info

Callsign N787PR
Flight time N/A
Altitude 24000
Route EMOLA2R EMOLA A555 ILURI TROCO3
Aircraft PRM1/L-SDE2E3FGHRWXY/LB1

Departure

Time 2026-05-07 00:50
Airport Martinique Aimé Césaire International Airport (TFFF)

Arrival

Time N/A
Airport Luis Munoz Marin International Airport (TJSJ)
Time Latitude Longitude Altitude Speed Heading
2026-05-07 00:41 14.59332 -61.00665 -13 ft 0 kts 348°
2026-05-07 00:45 14.59333 -61.00665 -13 ft 1 kts 346°
2026-05-07 00:45 14.59345 -61.00678 14 ft 6 kts 282°
2026-05-07 00:45 14.59319 -61.00723 14 ft 11 kts 176°
2026-05-07 00:46 14.59233 -61.00710 14 ft 11 kts 182°
2026-05-07 00:46 14.59193 -61.00789 15 ft 17 kts 261°
2026-05-07 00:46 14.59171 -61.00923 19 ft 21 kts 260°
2026-05-07 00:46 14.59143 -61.01088 20 ft 26 kts 260°
2026-05-07 00:47 14.59110 -61.01278 20 ft 28 kts 260°
2026-05-07 00:47 14.59088 -61.01373 21 ft 0 kts 205°
2026-05-07 00:47 14.59020 -61.01365 21 ft 22 kts 172°
2026-05-07 00:47 14.58915 -61.01408 21 ft 22 kts 268°
2026-05-07 00:48 14.58883 -61.01631 16 ft 30 kts 259°
2026-05-07 00:48 14.58880 -61.01758 13 ft 15 kts 302°
2026-05-07 00:48 14.58891 -61.01823 13 ft 8 kts 205°
2026-05-07 00:48 14.58853 -61.01782 13 ft 12 kts 71°
2026-05-07 00:49 14.58859 -61.01762 13 ft 0 kts 79°
2026-05-07 00:49 14.58888 -61.01596 17 ft 56 kts 80°
2026-05-07 00:50 14.58994 -61.00979 19 ft 116 kts 79°
2026-05-07 00:50 14.59145 -61.00059 317 ft 144 kts 80°
2026-05-07 00:50 14.59329 -60.98982 893 ft 160 kts 76°
2026-05-07 00:50 14.59551 -60.97843 1681 ft 154 kts 79°
2026-05-07 00:51 14.59721 -60.96780 2531 ft 152 kts 79°
2026-05-07 00:51 14.59913 -60.95698 3207 ft 154 kts 79°
2026-05-07 00:51 14.60098 -60.94615 3833 ft 154 kts 80°
2026-05-07 00:51 14.60285 -60.93504 4269 ft 160 kts 79°
2026-05-07 00:52 14.60475 -60.92368 4818 ft 161 kts 79°
2026-05-07 00:52 14.60666 -60.91217 5315 ft 164 kts 80°
2026-05-07 00:52 14.60858 -60.90044 5802 ft 168 kts 81°
2026-05-07 00:52 14.61051 -60.88851 6291 ft 170 kts 81°
2026-05-07 00:53 14.61516 -60.87741 6727 ft 176 kts 42°
2026-05-07 00:53 14.62640 -60.87261 7206 ft 178 kts 14°
2026-05-07 00:53 14.63880 -60.87340 7637 ft 182 kts 348°
2026-05-07 00:53 14.65112 -60.87660 8077 ft 183 kts 348°
2026-05-07 00:54 14.66357 -60.87983 8511 ft 185 kts 348°
2026-05-07 00:54 14.67604 -60.88315 8949 ft 186 kts 347°
2026-05-07 00:54 14.68859 -60.88651 9378 ft 187 kts 347°
2026-05-07 00:54 14.70107 -60.88982 9797 ft 188 kts 347°
2026-05-07 00:55 14.71378 -60.89319 10198 ft 189 kts 347°
2026-05-07 00:55 14.72648 -60.89657 10615 ft 188 kts 347°
2026-05-07 00:55 14.73913 -60.89993 10998 ft 188 kts 348°
2026-05-07 00:55 14.75176 -60.90329 11391 ft 188 kts 348°
2026-05-07 00:56 14.76445 -60.90665 11785 ft 187 kts 348°
2026-05-07 00:56 14.77704 -60.91000 12173 ft 187 kts 348°
2026-05-07 00:56 14.78958 -60.91333 12571 ft 186 kts 347°
2026-05-07 00:56 14.80224 -60.91669 12901 ft 188 kts 348°
2026-05-07 00:57 14.81493 -60.92007 13239 ft 189 kts 347°
2026-05-07 00:57 14.82768 -60.92345 13607 ft 189 kts 347°
2026-05-07 00:57 14.84043 -60.92684 13936 ft 190 kts 347°
2026-05-07 00:57 14.85320 -60.93024 14233 ft 190 kts 347°
2026-05-07 00:58 14.86607 -60.93366 14525 ft 191 kts 347°
2026-05-07 00:58 14.87898 -60.93709 14814 ft 192 kts 347°
2026-05-07 00:58 14.89189 -60.94053 15100 ft 192 kts 347°
2026-05-07 00:58 14.90485 -60.94397 15386 ft 192 kts 347°
2026-05-07 00:59 14.93069 -60.95146 15930 ft 196 kts 336°
2026-05-07 00:59 14.94077 -60.96113 16207 ft 203 kts 306°
2026-05-07 00:59 14.94586 -60.97492 16481 ft 208 kts 291°
2026-05-07 01:00 14.94986 -60.98932 16736 ft 209 kts 291°
2026-05-07 01:00 14.95389 -61.00381 16985 ft 210 kts 291°
2026-05-07 01:00 14.95800 -61.01833 17238 ft 211 kts 291°
2026-05-07 01:00 14.96215 -61.03293 17491 ft 212 kts 291°
2026-05-07 01:01 14.96631 -61.04757 17738 ft 212 kts 291°
2026-05-07 01:01 14.97046 -61.06221 17998 ft 212 kts 292°
2026-05-07 01:01 14.97463 -61.07690 18238 ft 213 kts 292°
2026-05-07 01:01 14.97880 -61.09162 18455 ft 214 kts 291°
2026-05-07 01:02 14.98294 -61.10621 18648 ft 215 kts 291°
2026-05-07 01:02 14.98715 -61.12108 18854 ft 216 kts 291°
2026-05-07 01:02 14.99136 -61.13596 19038 ft 216 kts 291°
2026-05-07 01:02 14.99560 -61.15093 19230 ft 217 kts 291°
2026-05-07 01:03 14.99984 -61.16589 19417 ft 217 kts 290°
2026-05-07 01:03 15.00410 -61.18093 19598 ft 218 kts 290°
2026-05-07 01:03 15.00836 -61.19600 19785 ft 218 kts 290°
2026-05-07 01:03 15.01263 -61.21111 19961 ft 219 kts 290°
2026-05-07 01:04 15.01692 -61.22625 20136 ft 220 kts 290°
2026-05-07 01:04 15.02121 -61.24143 20311 ft 220 kts 289°
2026-05-07 01:04 15.02551 -61.25665 20480 ft 221 kts 289°
2026-05-07 01:04 15.02982 -61.27191 20650 ft 221 kts 289°
2026-05-07 01:05 15.03415 -61.28720 20819 ft 222 kts 289°
2026-05-07 01:05 15.03848 -61.30254 20985 ft 222 kts 289°
2026-05-07 01:05 15.04281 -61.31786 21143 ft 223 kts 289°
2026-05-07 01:05 15.04716 -61.33330 21305 ft 223 kts 289°
2026-05-07 01:06 15.05149 -61.34864 21501 ft 221 kts 290°
2026-05-07 01:06 15.05578 -61.36385 21654 ft 221 kts 290°
2026-05-07 01:06 15.06009 -61.37914 21797 ft 221 kts 289°
2026-05-07 01:06 15.06446 -61.39458 21884 ft 225 kts 289°
2026-05-07 01:07 15.06885 -61.41010 22038 ft 225 kts 288°
2026-05-07 01:07 15.07322 -61.42568 22179 ft 225 kts 288°
2026-05-07 01:07 15.07760 -61.44126 22302 ft 227 kts 288°
2026-05-07 01:07 15.08202 -61.45694 22435 ft 227 kts 288°
2026-05-07 01:08 15.08638 -61.47242 22574 ft 227 kts 289°
2026-05-07 01:08 15.09078 -61.48806 22731 ft 226 kts 289°
2026-05-07 01:08 15.09517 -61.50366 22858 ft 226 kts 289°
2026-05-07 01:08 15.09958 -61.51933 22989 ft 227 kts 288°
2026-05-07 01:09 15.10256 -61.52993 23029 ft 229 kts 288°
2026-05-07 01:09 15.10843 -61.55075 23229 ft 227 kts 288°
2026-05-07 01:09 15.11284 -61.56648 23295 ft 230 kts 288°
2026-05-07 01:09 15.11582 -61.57706 23300 ft 232 kts 288°
2026-05-07 01:10 15.12037 -61.59329 23330 ft 236 kts 287°
2026-05-07 01:10 15.12494 -61.60948 23479 ft 233 kts 287°
2026-05-07 01:10 15.12944 -61.62555 23637 ft 231 kts 288°
2026-05-07 01:10 15.13399 -61.64141 23754 ft 230 kts 290°
2026-05-07 01:11 15.14262 -61.65506 23874 ft 227 kts 312°
2026-05-07 01:11 15.15320 -61.66709 24003 ft 226 kts 312°
2026-05-07 01:11 15.16384 -61.67923 24033 ft 229 kts 312°
2026-05-07 01:11 15.17461 -61.69163 24055 ft 233 kts 311°
2026-05-07 01:12 15.18552 -61.70421 24082 ft 236 kts 311°
2026-05-07 01:12 15.19658 -61.71693 24081 ft 239 kts 311°
2026-05-07 01:12 15.20781 -61.72987 24090 ft 243 kts 311°
2026-05-07 01:12 15.21908 -61.74285 24087 ft 248 kts 311°
2026-05-07 01:13 15.23090 -61.75648 24085 ft 255 kts 311°
2026-05-07 01:13 15.24282 -61.77020 24090 ft 263 kts 311°
2026-05-07 01:13 15.25522 -61.78450 24088 ft 270 kts 311°
2026-05-07 01:13 15.26785 -61.79905 24086 ft 275 kts 311°
2026-05-07 01:14 15.28073 -61.81390 24090 ft 279 kts 311°
2026-05-07 01:14 15.29379 -61.82896 24086 ft 282 kts 311°
2026-05-07 01:14 15.30696 -61.84415 24089 ft 284 kts 311°
2026-05-07 01:14 15.32023 -61.85945 24089 ft 286 kts 311°
2026-05-07 01:15 15.33356 -61.87483 24084 ft 288 kts 311°
2026-05-07 01:15 15.34692 -61.89025 24090 ft 288 kts 311°
2026-05-07 01:15 15.36030 -61.90570 24089 ft 288 kts 311°
2026-05-07 01:15 15.37371 -61.92119 24086 ft 290 kts 311°
2026-05-07 01:16 15.38720 -61.93676 24082 ft 290 kts 312°
2026-05-07 01:16 15.40069 -61.95234 24081 ft 291 kts 312°
2026-05-07 01:16 15.41424 -61.96799 24081 ft 295 kts 312°
2026-05-07 01:16 15.42817 -61.98409 24086 ft 306 kts 312°
2026-05-07 01:17 15.44254 -62.00070 24090 ft 312 kts 312°
2026-05-07 01:17 15.45716 -62.01761 24089 ft 317 kts 312°
2026-05-07 01:17 15.47197 -62.03473 24091 ft 320 kts 312°
2026-05-07 01:17 15.48687 -62.05196 24089 ft 322 kts 312°
2026-05-07 01:18 15.50186 -62.06931 24090 ft 324 kts 312°
2026-05-07 01:18 15.51693 -62.08676 24087 ft 325 kts 312°
2026-05-07 01:18 15.53204 -62.10424 24087 ft 326 kts 312°
2026-05-07 01:18 15.54718 -62.12177 24087 ft 327 kts 312°
2026-05-07 01:19 15.56236 -62.13934 24092 ft 327 kts 312°
2026-05-07 01:19 15.57755 -62.15694 24090 ft 327 kts 312°
2026-05-07 01:19 15.59275 -62.17455 24087 ft 327 kts 312°
2026-05-07 01:19 15.60791 -62.19212 24087 ft 327 kts 312°
2026-05-07 01:20 15.62305 -62.20967 24085 ft 326 kts 312°
2026-05-07 01:20 15.63818 -62.22721 24081 ft 327 kts 312°
2026-05-07 01:20 15.65335 -62.24480 24082 ft 327 kts 312°
2026-05-07 01:20 15.66854 -62.26242 24081 ft 327 kts 312°
2026-05-07 01:21 15.68353 -62.27981 24083 ft 328 kts 312°
2026-05-07 01:21 15.69874 -62.29746 24084 ft 328 kts 312°
2026-05-07 01:21 15.71396 -62.31513 24088 ft 328 kts 312°
2026-05-07 01:21 15.72918 -62.33280 24087 ft 328 kts 312°
2026-05-07 01:22 15.74438 -62.35046 24088 ft 328 kts 312°
2026-05-07 01:22 15.75954 -62.36807 24090 ft 327 kts 312°
2026-05-07 01:22 15.77466 -62.38563 24087 ft 327 kts 312°
2026-05-07 01:22 15.78985 -62.40328 24088 ft 327 kts 312°
2026-05-07 01:23 15.80502 -62.42091 24081 ft 327 kts 312°
2026-05-07 01:23 15.82022 -62.43858 24079 ft 329 kts 312°
2026-05-07 01:23 15.83547 -62.45632 24082 ft 329 kts 312°
2026-05-07 01:23 15.85068 -62.47401 24090 ft 328 kts 312°
2026-05-07 01:24 15.86588 -62.49169 24086 ft 329 kts 312°
2026-05-07 01:24 15.88111 -62.50941 24089 ft 328 kts 312°
2026-05-07 01:24 15.89633 -62.52714 24088 ft 329 kts 312°
2026-05-07 01:24 15.91156 -62.54487 24085 ft 329 kts 312°
2026-05-07 01:25 15.92666 -62.56246 24086 ft 330 kts 313°
2026-05-07 01:25 15.94194 -62.58025 24087 ft 330 kts 312°
2026-05-07 01:25 15.95725 -62.59810 24087 ft 331 kts 312°
2026-05-07 01:25 15.97258 -62.61597 24088 ft 331 kts 312°
2026-05-07 01:26 15.98793 -62.63386 24090 ft 331 kts 312°
2026-05-07 01:26 16.00325 -62.65173 24090 ft 331 kts 312°
2026-05-07 01:26 16.01859 -62.66962 24091 ft 331 kts 313°
2026-05-07 01:26 16.03390 -62.68749 24092 ft 331 kts 312°
2026-05-07 01:27 16.04923 -62.70537 24090 ft 331 kts 312°
2026-05-07 01:27 16.06451 -62.72321 24091 ft 331 kts 312°
2026-05-07 01:27 16.07984 -62.74111 24091 ft 331 kts 312°
2026-05-07 01:27 16.09517 -62.75902 24093 ft 331 kts 312°
2026-05-07 01:28 16.11049 -62.77692 24094 ft 332 kts 312°
2026-05-07 01:28 16.12583 -62.79484 24094 ft 331 kts 312°
2026-05-07 01:28 16.14114 -62.81274 24096 ft 331 kts 312°
2026-05-07 01:28 16.15645 -62.83064 24094 ft 331 kts 313°
2026-05-07 01:29 16.17177 -62.84855 24092 ft 331 kts 313°
2026-05-07 01:29 16.18706 -62.86643 24089 ft 331 kts 312°